Terug naar catalogus

SL-6 R/B(2)

ActiefHEO
NORAD 12384·ROCKET BODY·🇷🇺 Russia

Gelanceerd Mar 31, 1981 vanaf Plesetsk Cosmodrome

Loading…

Volgende Passages (komende 24 uur)

TLE

VersSource: Space-Track

Epoch: Sep 14, 2026, 10:57 UTC

1 12384U 81031D   26257.45652651 -.00000619  00000-0  00000-0 0  9994
2 12384  68.1368  63.7142 6068954 356.7443   0.5296  2.03544699337934

Volg SL-6 R/B(2) in realtime met AllMySat

Download on the App Store